Time,TemperatureF,DewpointF,PressureIn,WindDirection,WindDirectionDegrees,WindSpeedMPH,WindSpeedGustMPH,Humidity,HourlyPrecipIn,Conditions,Clouds,dailyrainin,SoftwareType,DateUTC
2013-04-07 11:40:00,68.5,57.6,29.32,SE,138,8.7,8.7,68,0.00,,---,0.00,VWS V13.01,2013-04-07 16:40:00,
2013-04-07 11:41:00,68.5,57.6,29.32,SE,138,8.7,8.7,68,0.00,,---,0.00,VWS V13.01,2013-04-07 16:41:00,
2013-04-07 11:46:00,68.5,57.6,29.32,South,171,8.7,16.3,68,0.00,,---,0.00,VWS V13.01,2013-04-07 16:46:00,
2013-04-07 11:51:00,68.5,58.0,29.32,SSW,194,10.1,14.5,69,0.00,,---,0.00,VWS V13.01,2013-04-07 16:51:00,
2013-04-07 11:56:00,68.9,57.9,29.32,South,173,5.4,5.4,68,0.00,,---,0.00,VWS V13.01,2013-04-07 16:56:00,
2013-04-07 12:01:00,69.3,57.8,29.32,SE,138,10.1,12.3,67,0.00,,---,0.00,VWS V13.01,2013-04-07 17:01:00,
2013-04-07 12:06:00,69.3,57.8,29.32,South,182,12.8,13.6,67,0.00,,---,0.00,VWS V13.01,2013-04-07 17:06:00,
2013-04-07 12:11:00,69.3,57.8,29.29,SSE,149,10.1,10.1,67,0.00,,---,0.00,VWS V13.01,2013-04-07 17:11:00,
2013-04-07 12:16:00,69.4,58.0,29.29,SE,136,5.8,10.1,67,0.00,,---,0.00,VWS V13.01,2013-04-07 17:16:00,
2013-04-07 12:21:00,69.6,57.8,29.29,SSE,162,7.6,8.1,66,0.00,,---,0.00,VWS V13.01,2013-04-07 17:21:00,
2013-04-07 12:26:00,69.8,57.9,29.29,SSE,168,5.8,5.8,66,0.00,,---,0.00,VWS V13.01,2013-04-07 17:26:00,
2013-04-07 12:31:00,69.8,57.1,29.29,SW,224,6.3,15.9,64,0.00,,---,0.00,VWS V13.01,2013-04-07 17:31:00,
2013-04-07 12:36:00,69.8,57.5,29.29,SSE,152,6.3,12.8,65,0.00,,---,0.00,VWS V13.01,2013-04-07 17:36:00,
2013-04-07 12:41:00,69.8,57.5,29.29,SSW,205,8.7,12.3,65,0.00,,---,0.00,VWS V13.01,2013-04-07 17:41:00,
2013-04-07 12:46:00,69.8,57.5,29.29,SSW,205,8.7,8.7,65,0.00,,---,0.00,VWS V13.01,2013-04-07 17:46:00,
2013-04-07 12:51:00,69.8,57.5,29.29,SSW,205,8.7,8.7,65,0.00,,---,0.00,VWS V13.01,2013-04-07 17:51:00,
2013-04-07 12:56:00,70.5,57.8,29.29,SSW,205,8.7,8.7,64,0.00,,---,0.00,VWS V13.01,2013-04-07 17:56:00,
2013-04-07 13:02:00,70.7,57.5,29.29,SSW,205,8.7,8.7,63,0.00,,---,0.00,VWS V13.01,2013-04-07 18:02:00,
2013-04-07 13:07:00,70.9,57.2,29.29,SSW,205,8.7,8.7,62,0.00,,---,0.00,VWS V13.01,2013-04-07 18:07:00,
2013-04-07 13:12:00,70.9,57.2,29.26,SSW,205,8.7,8.7,62,0.00,,---,0.00,VWS V13.01,2013-04-07 18:12:00,
2013-04-07 13:17:00,71.1,57.4,29.26,SSW,205,8.7,8.7,62,0.00,,---,0.00,VWS V13.01,2013-04-07 18:17:00,
2013-04-07 13:22:00,71.2,57.6,29.26,SSW,205,8.7,8.7,62,0.00,,---,0.00,VWS V13.01,2013-04-07 18:22:00,
2013-04-07 13:27:00,71.4,57.7,29.26,SSW,205,8.7,8.7,62,0.00,,---,0.00,VWS V13.01,2013-04-07 18:27:00,
2013-04-07 13:32:00,71.8,57.6,29.26,SSW,205,8.7,8.7,61,0.00,,---,0.00,VWS V13.01,2013-04-07 18:32:00,
2013-04-07 13:37:00,71.8,57.6,29.26,SSW,205,8.7,8.7,61,0.00,,---,0.00,VWS V13.01,2013-04-07 18:37:00,
2013-04-07 13:42:00,72.0,57.8,29.26,SSW,205,8.7,8.7,61,0.00,,---,0.00,VWS V13.01,2013-04-07 18:42:00,
2013-04-07 13:47:00,72.0,57.8,29.26,SSW,205,8.7,8.7,61,0.00,,---,0.00,VWS V13.01,2013-04-07 18:47:00,
2013-04-07 13:52:00,72.7,57.5,29.26,SSW,205,8.7,8.7,59,0.00,,---,0.00,VWS V13.01,2013-04-07 18:52:00,
2013-04-07 13:57:00,73.4,57.7,29.26,SSW,205,8.7,8.7,58,0.00,,---,0.00,VWS V13.01,2013-04-07 18:57:00,
2013-04-07 14:02:00,73.4,57.7,29.26,SSW,205,8.7,8.7,58,0.00,,---,0.00,VWS V13.01,2013-04-07 19:02:00,
2013-04-07 14:07:00,73.6,57.4,29.26,SSW,205,8.7,8.7,57,0.00,,---,0.00,VWS V13.01,2013-04-07 19:07:00,
2013-04-07 14:12:00,73.6,57.4,29.26,SSW,205,8.7,8.7,57,0.00,,---,0.00,VWS V13.01,2013-04-07 19:12:00,
2013-04-07 14:17:00,73.2,57.6,29.23,SSW,205,8.7,8.7,58,0.00,,---,0.00,VWS V13.01,2013-04-07 19:17:00,
2013-04-07 14:22:00,73.0,57.4,29.23,SSW,205,8.7,8.7,58,0.00,,---,0.00,VWS V13.01,2013-04-07 19:22:00,
2013-04-07 14:27:00,73.0,57.4,29.23,SSW,205,8.7,8.7,58,0.00,,---,0.00,VWS V13.01,2013-04-07 19:27:00,
2013-04-07 14:32:00,73.0,57.4,29.23,SSW,205,8.7,8.7,58,0.00,,---,0.00,VWS V13.01,2013-04-07 19:32:00,
2013-04-07 14:37:00,72.9,57.7,29.23,SSW,205,8.7,8.7,59,0.00,,---,0.00,VWS V13.01,2013-04-07 19:37:00,
2013-04-07 14:42:00,72.9,57.7,29.23,SSW,205,8.7,8.7,59,0.00,,---,0.00,VWS V13.01,2013-04-07 19:42:00,
2013-04-07 14:47:00,72.9,57.7,29.23,SSW,205,8.7,8.7,59,0.00,,---,0.00,VWS V13.01,2013-04-07 19:47:00,
2013-04-07 14:52:00,72.3,57.2,29.23,SSW,205,8.7,8.7,59,0.00,,---,0.00,VWS V13.01,2013-04-07 19:52:00,
2013-04-07 14:57:00,72.3,57.7,29.23,SSW,205,8.7,8.7,60,0.00,,---,0.00,VWS V13.01,2013-04-07 19:57:00,
2013-04-07 15:02:00,72.3,57.7,29.23,SSW,205,8.7,8.7,60,0.00,,---,0.00,VWS V13.01,2013-04-07 20:02:00,
2013-04-07 15:08:00,72.3,57.7,29.23,SSW,205,8.7,8.7,60,0.00,,---,0.00,VWS V13.01,2013-04-07 20:08:00,
2013-04-07 15:13:00,72.3,57.7,29.23,SSW,205,8.7,8.7,60,0.00,,---,0.00,VWS V13.01,2013-04-07 20:13:00,
2013-04-07 15:18:00,72.3,57.7,29.23,SSW,205,8.7,8.7,60,0.00,,---,0.00,VWS V13.01,2013-04-07 20:18:00,
2013-04-07 15:23:00,72.5,57.8,29.23,SSW,205,8.7,8.7,60,0.00,,---,0.00,VWS V13.01,2013-04-07 20:23:00,
2013-04-07 15:28:00,72.7,58.0,29.23,SSW,205,8.7,8.7,60,0.00,,---,0.00,VWS V13.01,2013-04-07 20:28:00,
2013-04-07 15:33:00,72.5,57.4,29.23,SSW,205,8.7,8.7,59,0.00,,---,0.00,VWS V13.01,2013-04-07 20:33:00,
2013-04-07 15:37:00,72.5,57.4,29.21,SSW,205,8.7,8.7,59,0.00,,---,0.00,VWS V13.01,2013-04-07 20:37:00,
2013-04-07 15:42:00,72.5,57.8,29.21,SSW,205,8.7,8.7,60,0.00,,---,0.00,VWS V13.01,2013-04-07 20:42:00,
2013-04-07 15:48:00,72.5,57.8,29.21,SSW,205,8.7,8.7,60,0.00,,---,0.00,VWS V13.01,2013-04-07 20:48:00,
2013-04-07 15:53:00,72.3,57.7,29.21,SSW,205,8.7,8.7,60,0.00,,---,0.00,VWS V13.01,2013-04-07 20:53:00,
2013-04-07 15:58:00,72.3,58.1,29.21,SSW,205,8.7,8.7,61,0.00,,---,0.00,VWS V13.01,2013-04-07 20:58:00,
2013-04-07 16:03:00,72.3,58.1,29.21,SSW,205,8.7,8.7,61,0.00,,---,0.00,VWS V13.01,2013-04-07 21:03:00,
2013-04-07 16:08:00,72.3,58.1,29.21,SSW,205,8.7,8.7,61,0.00,,---,0.00,VWS V13.01,2013-04-07 21:08:00,
2013-04-07 16:13:00,72.3,58.1,29.21,SSW,205,8.7,8.7,61,0.00,,---,0.00,VWS V13.01,2013-04-07 21:13:00,
2013-04-07 16:18:00,72.5,57.8,29.21,SSW,205,8.7,8.7,60,0.00,,---,0.00,VWS V13.01,2013-04-07 21:18:00,
2013-04-07 16:23:00,72.5,57.8,29.21,SSE,156,7.6,7.6,60,0.00,,---,0.00,VWS V13.01,2013-04-07 21:23:00,
2013-04-07 16:28:00,72.5,57.8,29.21,SSE,156,7.6,7.6,60,0.00,,---,0.00,VWS V13.01,2013-04-07 21:28:00,
2013-04-07 16:33:00,72.5,57.8,29.21,SSE,156,7.6,7.6,60,0.00,,---,0.00,VWS V13.01,2013-04-07 21:33:00,
2013-04-07 16:38:00,72.3,57.7,29.21,SSE,159,3.1,4.9,60,0.00,,---,0.00,VWS V13.01,2013-04-07 21:38:00,
2013-04-07 16:43:00,72.3,58.1,29.21,SSE,165,14.5,14.5,61,0.00,,---,0.00,VWS V13.01,2013-04-07 21:43:00,
2013-04-07 16:48:00,72.3,57.7,29.21,SSE,162,8.1,12.3,60,0.00,,---,0.00,VWS V13.01,2013-04-07 21:48:00,
2013-04-07 16:53:00,72.3,58.1,29.21,SE,124,8.3,8.3,61,0.00,,---,0.00,VWS V13.01,2013-04-07 21:53:00,
2013-04-07 16:58:00,72.5,58.3,29.21,SE,133,11.0,13.2,61,0.00,,---,0.00,VWS V13.01,2013-04-07 21:58:00,
2013-04-07 17:03:00,72.5,57.8,29.21,SSE,165,5.8,8.3,60,0.00,,---,0.00,VWS V13.01,2013-04-07 22:03:00,
2013-04-07 17:08:00,72.7,58.0,29.18,SSE,148,8.7,8.7,60,0.00,,---,0.00,VWS V13.01,2013-04-07 22:08:00,
2013-04-07 17:13:00,73.0,58.8,29.18,South,172,8.3,10.5,61,0.00,,---,0.00,VWS V13.01,2013-04-07 22:13:00,
2013-04-07 17:18:00,73.0,57.9,29.18,ESE,118,9.6,10.5,59,0.00,,---,0.00,VWS V13.01,2013-04-07 22:18:00,
2013-04-07 17:23:00,73.0,58.3,29.18,SE,142,17.4,17.4,60,0.00,,---,0.00,VWS V13.01,2013-04-07 22:23:00,
2013-04-07 17:28:00,73.0,57.9,29.18,South,178,6.3,6.3,59,0.00,,---,0.00,VWS V13.01,2013-04-07 22:28:00,
2013-04-07 17:33:00,73.0,57.9,29.18,South,178,6.3,6.3,59,0.00,,---,0.00,VWS V13.01,2013-04-07 22:33:00,
2013-04-07 17:38:00,73.0,57.9,29.18,South,178,6.3,6.3,59,0.00,,---,0.00,VWS V13.01,2013-04-07 22:38:00,
2013-04-07 17:43:00,73.0,57.9,29.18,South,178,6.3,6.3,59,0.00,,---,0.00,VWS V13.01,2013-04-07 22:43:00,
2013-04-07 17:48:00,73.0,57.9,29.18,South,178,6.3,6.3,59,0.00,,---,0.00,VWS V13.01,2013-04-07 22:48:00,
2013-04-07 17:53:00,73.0,57.9,29.18,South,178,6.3,6.3,59,0.00,,---,0.00,VWS V13.01,2013-04-07 22:53:00,
2013-04-07 17:58:00,73.0,57.9,29.18,South,178,6.3,6.3,59,0.00,,---,0.00,VWS V13.01,2013-04-07 22:58:00,
2013-04-07 18:03:00,73.0,57.9,29.18,South,178,6.3,6.3,59,0.00,,---,0.00,VWS V13.01,2013-04-07 23:03:00,
2013-04-07 18:08:00,73.0,57.9,29.18,South,178,6.3,6.3,59,0.00,,---,0.00,VWS V13.01,2013-04-07 23:08:00,
2013-04-07 18:13:00,73.0,57.9,29.18,South,178,6.3,6.3,59,0.00,,---,0.00,VWS V13.01,2013-04-07 23:13:00,
2013-04-07 18:18:00,73.0,57.9,29.18,South,178,6.3,6.3,59,0.00,,---,0.00,VWS V13.01,2013-04-07 23:18:00,
2013-04-07 18:23:00,73.0,57.9,29.18,South,178,6.3,6.3,59,0.00,,---,0.00,VWS V13.01,2013-04-07 23:23:00,
2013-04-07 18:29:00,73.0,57.9,29.18,South,178,6.3,6.3,59,0.00,,---,0.00,VWS V13.01,2013-04-07 23:29:00,
2013-04-07 18:34:00,73.0,57.9,29.18,South,178,6.3,6.3,59,0.00,,---,0.00,VWS V13.01,2013-04-07 23:34:00,
2013-04-07 18:39:00,73.0,57.9,29.18,South,178,6.3,6.3,59,0.00,,---,0.00,VWS V13.01,2013-04-07 23:39:00,
2013-04-07 18:44:00,73.0,57.9,29.18,South,178,6.3,6.3,59,0.00,,---,0.00,VWS V13.01,2013-04-07 23:44:00,
2013-04-07 18:49:00,73.0,57.9,29.18,South,178,6.3,6.3,59,0.00,,---,0.00,VWS V13.01,2013-04-07 23:49:00,
2013-04-07 18:54:00,73.0,57.9,29.18,South,178,6.3,6.3,59,0.00,,---,0.00,VWS V13.01,2013-04-07 23:54:00,
2013-04-07 18:59:00,73.0,57.9,29.18,South,178,6.3,6.3,59,0.00,,---,0.00,VWS V13.01,2013-04-07 23:59:00,
2013-04-07 19:04:00,73.0,57.9,29.18,South,178,6.3,6.3,59,0.00,,---,0.00,VWS V13.01,2013-04-08 00:04:00,
2013-04-07 19:09:00,73.0,57.9,29.18,South,178,6.3,6.3,59,0.00,,---,0.00,VWS V13.01,2013-04-08 00:09:00,
2013-04-07 19:14:00,73.0,57.9,29.18,South,178,6.3,6.3,59,0.00,,---,0.00,VWS V13.01,2013-04-08 00:14:00,
2013-04-07 19:19:00,73.0,57.9,29.18,South,178,6.3,6.3,59,0.00,,---,0.00,VWS V13.01,2013-04-08 00:19:00,
2013-04-07 19:24:00,73.0,57.9,29.18,South,178,6.3,6.3,59,0.00,,---,0.00,VWS V13.01,2013-04-08 00:24:00,
2013-04-07 19:30:00,73.0,57.9,29.18,South,178,6.3,6.3,59,0.00,,---,0.00,VWS V13.01,2013-04-08 00:30:00,
2013-04-07 19:35:00,73.0,57.9,29.18,South,178,6.3,6.3,59,0.00,,---,0.00,VWS V13.01,2013-04-08 00:35:00,
2013-04-07 19:40:00,73.0,57.9,29.18,South,178,6.3,6.3,59,0.00,,---,0.00,VWS V13.01,2013-04-08 00:40:00,
2013-04-07 19:45:00,73.0,57.9,29.18,South,178,6.3,6.3,59,0.00,,---,0.00,VWS V13.01,2013-04-08 00:45:00,